DECAYED

OBJECT H, 60752 (Decayed)

Orbit data source: Space-Track

You're viewing an Uncataloged Satellite

Recently launched and/or uncataloged satellites may have evolving metadata. Metadata may include but not limited to: Owner, Maufacturer, Bus, Motor, and Mission.

OBJECT H, 60752 was a satellite owned by Xinghe Dongli (CN) in SSO that was launched on Thu, 29 Aug 2024 UTC launched from the Yellow Sea Launch Area, China (YSLA). Unknown objects in Earth's orbit typically refer to objects detected orbiting the Earth but have not yet been identified or cataloged. These objects could be anything from previously untracked satellites, spent rocket stages, debris from satellite collisions, or even natural meteoroids temporarily captured by Earth's gravity. This object's orbit decayed before it could be identified.

Loading next visibility...
OBJECT H details
Identifier
60752, 2024-153H
Orbit
Decayed
Last TLE update5 months ago
Origin
Flag of CNXinghe Dongli (CN / PRC)
ManufacturerXinghe Dongli
MissionDecayed spacecraft
Bus & MotorUnknown
Mass~50 kg wet, ~50 kg dry
Launch date (UTC)
2024-08-29 (5 months ago)
Launch vehicleUnknown
Launch site
Yellow Sea Launch Area, China (YSLA)
Object typeUnknown
Shape & HBRUnknown
Radar Cross SectionLarge (>1 m²)

Expand to show TLE details & history

TLE from 5 months ago
0 OBJECT H
1 60752U 24153H   24242.34728060 -.00000069  00000-0  00000+0 0  9994
2 60752  97.3719   0.5652 0013970  33.0832  33.4934 15.22204973    28
Epoch: 2024-08-29T08:20Z
Definitive object data (Epoch: 2024-08-29T08:20:05.043Z)
Latitude65.68107°
Longitude-119.03337°
Altitude502.55 km
Speed7.624 km/s
True Right ascension22h 56m 05s
True Declination65° 32' 49"
Sunlit
Object was in daylight at TLE epoch
Visualization TLE readout
Latitude42.0907°
Longitude27.01176°
Altitude512.413 km
Speed7.608 km/s
Apparent Right ascension13h 17m 50s
Apparent Declination10° 34' 41"
Sunlit
Object is in daylight
Visualization observer readout
Local Sidereal Time06:30:06
Azimuth74.252° E
Elevation-2.183°
Doppler factor1
Orbital elements
Apogee altitude505.756 km
Perigee altitude486.549 km
Semi-major axis6,874.29 km
Eccentricity0.001397
Inclination97.3719°
RAAN0.5652°
Arg. of periapsis33.0832°
True anomaly33.58187°
Mean anomaly33.4934°
Eccentric anomaly33.53762°
Mean motion3.80804 °/min
BSTARUnknown
Orbital period94.54 mins
Loading maneuver chart data...
Loading historical data...
Loading historical data...
Loading historical data...
Loading historical data...
Loading historical data...
Loading historical data...
Loading historical data...

OBJECT H Visibility forecast

Observer location: undefined°, undefined

Span
Click to sort rows by Start time (UTC) header in descending order
Start Az.
Max El. time (UTC)
Max El. Az.
Max El.
End time (UTC)
End Az.
5 mins2025-01-15 07:22:49.883Z126.529° SE2025-01-15 07:25:49.883Z59.382° ENE25.019°2025-01-15 07:27:49.883Z18.88° NNE
5 mins2025-01-15 20:26:49.883Z41.635° NE2025-01-15 20:28:49.883Z108.287° ESE33.375°2025-01-15 20:31:49.883Z169.129° S
|